Location: Little Baddow
(51.7333°N, 0.5667°E)
Time: 02:46:00
(UTC+00:00)

PAYLOAD A - Pass Details

Date: 08 November 2025
Orbit: 690 x 828 km, 98.6° (Epoch: 15 December)

Event Time Altitude Azimuth Distance (km) Brightness Sun altitude
Rises 04:07:37 0° 16° (NNE) 3,385 7.6 -27.5°
Reaches altitude 10° 04:10:01 10° 20° (NNE) 2,445 6.9 -27.1°
Maximum altitude 04:15:26 67° 103° (ESE) 893 4.4 -26.3°
Enters shadow 04:20:35 11° 185° (S) 2,332 6.4 -25.5°
